This is the latest recevied weather packets stored in our database for station/object LU1MQF-13. If no packets are shown the sender has not sent any weather packets the latest 10 day(s).
| Time | Temp. | Humidity | Pressure | Rain* | Wind** | Luminosity | Snow |
|---|---|---|---|---|---|---|---|
| 1777948027 | 16.11° C | 47% | 933.1 hPa | - | - | - | - |
| 1777947127 | 16.11° C | 47% | 933 hPa | - | - | - | - |
| 1777946227 | 16.11° C | 47% | 933.1 hPa | - | - | - | - |
| 1777945327 | 16.11° C | 47% | 933 hPa | - | - | - | - |
| 1777944427 | 16.11° C | 48% | 932.9 hPa | - | - | - | - |
| 1777943527 | 17.22° C | 49% | 933 hPa | - | - | - | - |
| 1777942627 | 17.22° C | 47% | 932.7 hPa | - | - | - | - |
| 1777941727 | 17.22° C | 47% | 932.6 hPa | - | - | - | - |
| 1777940827 | 17.22° C | 46% | 932.8 hPa | - | - | - | - |
| 1777939927 | 17.22° C | 46% | 932.7 hPa | - | - | - | - |
| 1777939027 | 17.22° C | 46% | 932.5 hPa | - | - | - | - |
| 1777938126 | 17.22° C | 46% | 932.3 hPa | - | - | - | - |
| 1777937227 | 17.22° C | 46% | 932 hPa | - | - | - | - |
| 1777936331 | 17.22° C | 46% | 931.7 hPa | - | - | - | - |
| 1777935427 | 17.78° C | 46% | 931.7 hPa | - | - | - | - |
| 1777934526 | 17.78° C | 46% | 931.4 hPa | - | - | - | - |
| 1777933626 | 18.89° C | 46% | 931.3 hPa | - | - | - | - |
| 1777932726 | 18.89° C | 46% | 931.1 hPa | - | - | - | - |
| 1777931827 | 18.89° C | 48% | 931.2 hPa | - | - | - | - |
| 1777930926 | 21.11° C | 48% | 931.1 hPa | - | - | - | - |
| 1777930026 | 21.11° C | 52% | 931 hPa | - | - | - | - |
| 1777929134 | 22.22° C | 45% | 930.8 hPa | - | - | - | - |
| 1777928226 | 21.11° C | 34% | 930.6 hPa | - | - | - | - |
| 1777927341 | 22.22° C | 34% | 930.5 hPa | - | - | - | - |
| 1777926426 | 22.22° C | 34% | 930.5 hPa | - | - | - | - |
* Rain since midnight (hover to see other rain measurements)
** Current wind speed in m/s (hover to see current wind gust speed)